Flag for U.S.A. Weather past 2 weeks in Lakewood, New Jersey, U.S.A.

Now
63 °F

Clear.


Feels Like: 63 °F
Forecast: 58 / 76 °F
Wind: 6 mph from Northwest

Location: Belmar-Farmdale

Current Time: Aug 29, 2014 at 1:23:40 AM

Latest Report: Aug 29, 2014 at 12:55 AM


Visibility: 10 mi

Pressure: 30.08 "Hg

Humidity: 56%

Dew point: 46 °F

Location of LakewoodLocation

Historic Weather in Lakewood — Graph

°F

Lakewood temperature yesterday

Maximum temperature yesterday: 81 °F (at 1:55 PM)
Minimum temperature yesterday: 64 °F (at 11:35 PM)
Average temperature yesterday: 74 °F

Past Weeks' High & Low Weather Summary

 TemperatureHumidityPressure
High88 °F (Aug 27, 2:55 PM)88% (Aug 15, 4:35 AM)30.18 "Hg (Aug 15, 4:35 AM)
Low55 °F (Aug 15, 6:55 AM)38% (Aug 27, 2:55 PM)29.79 "Hg (Aug 14, 12:15 AM)
Average71 °F66%29.99 "Hg
* Reported Aug 14 12:15 AM — Aug 29 12:35 AM, Lakewood, Weather by CustomWeather, © 2014

Note: Actual official high and low records may vary slightly from our data, if they occured in-between our weather recording intervals... More about our weather records

Advertising

Lakewood weather history for previous 24 hours

 ConditionsComfort  
Time TempWeatherWind HumidityBarometerVisibility
12:35 AM
Aug 29
63 °FClear.6 mph56%30.07 "Hg10 mi
12:15 AM63 °FClear.7 mph56%30.07 "Hg10 mi
11:55 PM
Aug 28
64 °FClear.7 mph52%30.06 "Hg10 mi
11:35 PM64 °FClear.8 mph52%30.06 "Hg10 mi
11:15 PM66 °FClear.8 mph49%30.05 "Hg10 mi
10:55 PM66 °FClear.8 mph49%30.05 "Hg10 mi
10:35 PM66 °FClear.10 mph52%30.04 "Hg10 mi
10:15 PM68 °FClear.12 mph49%30.04 "Hg10 mi
9:15 PM68 °FClear.7 mph53%30.01 "Hg10 mi
8:55 PM70 °FClear.7 mph50%30.00 "Hg10 mi
8:35 PM70 °FClear.7 mph50%29.99 "Hg10 mi
7:55 PM72 °FSunny.8 mph47%29.97 "Hg10 mi
7:35 PM73 °FSunny.9 mph44%29.96 "Hg10 mi
7:15 PM75 °FSunny.8 mph41%29.95 "Hg10 mi
6:55 PM75 °FSunny.12 mph44%29.95 "Hg10 mi
6:35 PM77 °FSunny.9 mph42%29.94 "Hg10 mi
6:15 PM79 °FSunny.12 mph39%29.94 "Hg10 mi
5:55 PM79 °FSunny.12 mph39%29.94 "Hg10 mi
5:35 PM79 °FSunny.13 mph39%29.93 "Hg10 mi
5:15 PM79 °FSunny.14 mph39%29.92 "Hg10 mi
4:55 PM79 °FSunny.10 mph39%29.92 "Hg10 mi
4:35 PM79 °FSunny.12 mph39%29.91 "Hg10 mi
4:15 PM79 °FPassing clouds.15 mph42%29.91 "Hg10 mi
3:55 PM81 °FScattered clouds.16 mph39%29.91 "Hg10 mi
3:35 PM81 °FPassing clouds.15 mph39%29.90 "Hg10 mi
3:15 PM81 °FSunny.16 mph39%29.90 "Hg10 mi
2:55 PM81 °FSunny.14 mph39%29.90 "Hg10 mi
2:35 PM81 °FSunny.15 mph39%29.90 "Hg10 mi
1:55 PM81 °FSunny.15 mph39%29.90 "Hg10 mi
1:35 PM79 °FSunny.14 mph42%29.90 "Hg10 mi
1:15 PM79 °FSunny.13 mph45%29.90 "Hg10 mi
12:55 PM79 °FSunny.15 mph45%29.90 "Hg10 mi
12:35 PM77 °FSunny.18 mph44%29.90 "Hg10 mi
12:15 PM77 °FSunny.13 mph47%29.91 "Hg10 mi
11:35 AM75 °FSunny.15 mph50%29.92 "Hg10 mi
11:15 AM75 °FSunny.13 mph50%29.92 "Hg10 mi
10:55 AM73 °FSunny.13 mph53%29.92 "Hg10 mi
10:35 AM73 °FSunny.12 mph53%29.92 "Hg10 mi
10:15 AM73 °FSunny.13 mph50%29.91 "Hg10 mi
9:55 AM73 °FSunny.15 mph53%29.91 "Hg10 mi
9:35 AM73 °FSunny.14 mph53%29.91 "Hg10 mi
9:15 AM72 °FSunny.16 mph53%29.92 "Hg10 mi
8:55 AM72 °FSunny.13 mph53%29.92 "Hg10 mi
8:35 AM72 °FSunny.13 mph57%29.91 "Hg10 mi
7:55 AM70 °FSunny.14 mph60%29.89 "Hg10 mi
7:35 AM70 °FSunny.12 mph60%29.89 "Hg10 mi
7:15 AM70 °FClear.9 mph57%29.88 "Hg10 mi
6:55 AM70 °FClear.8 mph57%29.89 "Hg10 mi
6:35 AM70 °FClear.12 mph57%29.88 "Hg10 mi
6:15 AM72 °FPassing clouds.10 mph57%29.88 "Hg10 mi
5:55 AM72 °FPartly cloudy.9 mph57%29.87 "Hg10 mi
5:35 AM73 °FPassing clouds.13 mph53%29.87 "Hg10 mi
5:15 AM72 °FPartly cloudy.13 mph65%29.86 "Hg10 mi
4:55 AM72 °FPassing clouds.10 mph73%29.85 "Hg10 mi
4:35 AM73 °FPassing clouds.10 mph74%29.85 "Hg10 mi
4:15 AM73 °FPassing clouds.7 mph78%29.85 "Hg10 mi
3:55 AM73 °FOvercast.9 mph78%29.84 "Hg10 mi
3:35 AM73 °FPassing clouds.9 mph74%29.84 "Hg10 mi
3:15 AM73 °FPassing clouds.9 mph74%29.84 "Hg10 mi
2:55 AM72 °FClear.6 mph78%29.84 "Hg10 mi
2:35 AM72 °FClear.6 mph73%29.84 "Hg10 mi
2:15 AM72 °FClear.6 mph73%29.84 "Hg10 mi
1:55 AM72 °FClear.5 mph73%29.85 "Hg10 mi
1:35 AM72 °FClear.5 mph73%29.85 "Hg10 mi
1:15 AM72 °FClear.6 mph73%29.86 "Hg10 mi
Weather by CustomWeather, © 2014

See weather overviewHow to use our weather pages